Rylan Jade — WDI4904 — position and weather

sailwx.info

Track history (hours):
 
Tides and Currents Weather Stations Pressure Air Temp Water Temp Dewpoint Dewpoint Depression Visibility Wind Speed Wind Dir Waves Ship Positions

Rylan Jade

Owner: Marine Express, Inc. - Rylan Jade, Walnut Creek, CA. More information available from US FCC via Universal Licensing System and Coast Guard Vessel Documentation Center.

Last reported at 2018-Jun-24 23:26 UTC. Time now 2018-Jun-25 17:28 UTC.
Position N 33°44' W 118°09'.

; draft 1 m.

Type: Port tender. MMSI: 367067090.

Date/timePositionNaut miles runAvg speedWind from/ knotsBaromVisibWave heightAir tempDewpointWater temp
2018-Jun-24 23:26N 33°44' W 118°09'3 8.0
2018-Jun-24 23:00N 33°45' W 118°13'1 3.0
2018-Jun-24 22:30N 33°46' W 118°13'  
2018-Jun-19 23:44N 33°46' W 118°13'2 7.5
2018-Jun-19 23:30N 33°44' W 118°13'2 5.0
2018-Jun-19 23:01N 33°46' W 118°13'4 0.2
2018-Jun-18 22:02N 33°43' W 118°15'014.2
2018-Jun-18 22:01N 33°43' W 118°15'2 2.7
2018-Jun-18 21:22N 33°42' W 118°13'0 0.3
2018-Jun-18 21:00N 33°42' W 118°13'3 6.7
2018-Jun-18 20:30N 33°45' W 118°13'1 2.0
2018-Jun-18 20:01N 33°46' W 118°13'0 0.0
2018-Jun-18 19:30N 33°46' W 118°13'  
2018-Jun-15 00:41N 33°46' W 118°13'0 0.0
2018-Jun-15 00:30N 33°46' W 118°13'3 6.9
2018-Jun-15 00:00N 33°43' W 118°14'1 2.9
2018-Jun-14 23:30N 33°44' W 118°15'  
Track history (hours):
 
Tides and Currents Weather Stations Pressure Air Temp Water Temp Dewpoint Dewpoint Depression Visibility Wind Speed Wind Dir Waves Ship Positions

Rylan Jade

Owner: Marine Express, Inc. - Rylan Jade, Walnut Creek, CA. More information available from US FCC via Universal Licensing System and Coast Guard Vessel Documentation Center.

Last reported at 2018-Jun-24 23:26 UTC. Time now 2018-Jun-25 17:28 UTC.
Position N 33°44' W 118°09'.

; draft 1 m.

Type: Port tender. MMSI: 367067090.

Date/timePositionNaut miles runAvg speedWind from/ knotsBaromVisibWave heightAir tempDewpointWater temp
2018-Jun-24 23:26N 33°44' W 118°09'3 8.0
2018-Jun-24 23:00N 33°45' W 118°13'1 3.0
2018-Jun-24 22:30N 33°46' W 118°13'  
2018-Jun-19 23:44N 33°46' W 118°13'2 7.5
2018-Jun-19 23:30N 33°44' W 118°13'2 5.0
2018-Jun-19 23:01N 33°46' W 118°13'4 0.2
2018-Jun-18 22:02N 33°43' W 118°15'014.2
2018-Jun-18 22:01N 33°43' W 118°15'2 2.7
2018-Jun-18 21:22N 33°42' W 118°13'0 0.3
2018-Jun-18 21:00N 33°42' W 118°13'3 6.7
2018-Jun-18 20:30N 33°45' W 118°13'1 2.0
2018-Jun-18 20:01N 33°46' W 118°13'0 0.0
2018-Jun-18 19:30N 33°46' W 118°13'  
2018-Jun-15 00:41N 33°46' W 118°13'0 0.0
2018-Jun-15 00:30N 33°46' W 118°13'3 6.9
2018-Jun-15 00:00N 33°43' W 118°14'1 2.9
2018-Jun-14 23:30N 33°44' W 118°15'  

Dump ship's entire track history